Location: Roismala
(61.3000°N, 22.9333°E)
Time: 02:06:24
(UTC+00:00)

Daily predictions for brighter satellites

Satellite Brightness Start Highest point End
(mag) Time Altitude Azimuth Time Altitude Azimuth Time Altitude Azimuth
Cosmos 2297 Rocket 4.3 01:06:53 23° ENE 01:06:53 23° ENE 01:09:04 10° NE
Cosmos 2082 Rocket 4.0 01:34:12 27° NNE 01:34:12 27° NNE 01:37:37 10° ENE
ATLAS 3B R/B 3.6 01:43:18 42° ESE 01:43:18 42° ESE 01:47:42 10° ESE
Cosmos 2344 3.9 01:42:59 87° SSE 01:42:59 87° SSE 01:54:00 10° ESE
ADEOS II 4.3 01:37:42 10° NNE 01:39:01 18° NNE 01:39:01 18° NNE
Cosmos 1833 Rocket 4.3 01:44:49 30° NE 01:44:49 30° NE 01:48:43 10° ENE
CZ-2D R/B 4.4 01:45:35 10° NNE 01:46:50 17° N 01:46:50 17° N
ARIANE 5 R/B 4.4 01:54:15 10° NNE 01:56:13 24° NNE 01:56:13 24° NNE
USA 229 DEB 3.9 02:07:27 70° NE 02:07:27 70° NE 02:13:57 10° ENE
USA 229 3.9 02:07:33 70° NE 02:07:33 70° NE 02:14:02 10° ENE
CENTAUR R/B 4.4 02:14:21 27° S 02:14:21 27° S 02:18:09 10° SSE
Cosmos 2082 4.4 02:13:06 51° ENE 02:13:06 51° ENE 02:17:36 10° NE
ALOS 4.4 02:08:07 10° NE 02:11:57 24° E 02:14:47 14° SE
Cosmos 2227 Rocket 3.0 02:15:24 46° NE 02:15:24 46° NE 02:19:20 10° NE
NOSS 3-1 (C) 3.7 02:20:03 73° NNE 02:20:03 73° NNE 02:27:11 10° E
NOSS 3-1 (A) 3.7 02:21:08 74° NE 02:21:08 74° NE 02:28:05 10° ENE
Cosmos 2219 3.8 02:28:21 50° NNE 02:28:21 50° NNE 02:32:39 10° NE
Timation 2 Rocket 4.1 02:46:32 67° NNW 02:46:32 67° NNW 02:53:05 10° NE
Cosmos 2297 Rocket 2.6 02:48:41 53° N 02:48:41 53° N 02:53:20 10° NE
ATLAS CENTAUR R/B 3.9 02:55:54 13° SE 02:55:54 13° SE 02:56:24 10° SE
Lacrosse 5 4.4 02:52:48 10° SSE 02:55:41 16° SE 02:58:38 10° E
CZ-2C R/B 3.2 02:51:56 10° NNE 02:54:56 40° NNE 02:54:56 40° NNE
NOSS 2-3 (E) 4.2 02:58:24 72° N 02:58:25 72° N 03:05:03 10° E
Cosmos 1745 Rocket 3.9 02:59:34 58° SSW 03:00:58 86° WNW 03:07:24 10° NNE
Cosmos 1437 Rocket 4.5 03:01:10 28° NE 03:01:33 29° ENE 03:04:53 10° ESE
Resurs 1-4 Rocket 4.1 02:58:02 10° N 02:59:33 16° N 02:59:33 16° N
Cosmos 2263 Rocket 2.9 03:01:26 30° S 03:04:00 51° ESE 03:09:32 10° NE
IDEFIX/ARIANE 42P 3.9 03:01:02 10° NNE 03:03:39 28° N 03:03:39 28° N
Meteor 1-26 Rocket 4.1 03:06:29 80° WSW 03:06:29 80° WSW 03:12:10 10° S
SJ 16-02 2.7 03:08:47 18° SSE 03:11:31 37° ESE 03:15:37 10° NE
MSX 4.1 03:08:10 10° NNE 03:12:53 50° NNW 03:12:53 50° NNW
FENGYUN 3A 4.0 03:08:40 10° NNE 03:14:05 63° ESE 03:19:27 10° S
Cosmos 2181 Rocket 3.8 03:08:51 10° NNW 03:15:07 78° W 03:21:17 10° S
Cosmos 2082 Rocket 3.0 03:16:03 34° NNW 03:17:54 44° NNE 03:23:22 10° E
CZ-2C R/B 4.1 03:13:27 10° ESE 03:18:20 35° NE 03:23:08 10° N
NOSS 2-2 (E) 3.6 03:22:18 74° NE 03:22:18 74° NE 03:26:57 10° ENE
ADEOS II 3.8 03:17:53 10° N 03:19:57 19° NNW 03:19:57 19° NNW
Cosmos 1766 Rocket 3.9 03:20:46 32° S 03:22:45 67° E 03:27:13 10° NNE
Cosmos 1709 Rocket 4.0 03:19:48 10° S 03:26:13 88° E 03:32:38 10° NNE
Cosmos 1484 Rocket 4.0 03:22:34 10° NNE 03:24:49 34° NNE 03:24:49 34° NNE
CBERS 1 LM4 rocket 4.3 03:21:53 10° NNE 03:26:41 86° ESE 03:28:09 46° SSW
Cosmos 1833 Rocket 3.1 03:26:31 37° NNW 03:28:34 59° NE 03:34:08 10° ESE
NOSS 2-3 (D) 4.2 03:27:38 59° NW 03:28:39 73° N 03:35:27 10° E
USA 307 4.2 03:28:58 31° S 03:28:58 31° S 03:32:36 10° ESE
Cosmos 1408 Rocket 4.5 03:24:34 10° S 03:28:52 49° E 03:33:11 10° NNE
CZ-2D R/B 4.1 03:26:16 10° N 03:28:08 15° NNW 03:28:08 15° NNW
Okean 3 Rocket 3.6 03:29:47 51° S 03:30:51 80° ESE 03:35:19 10° NNE
ATLAS 3B R/B 3.0 03:30:35 43° WSW 03:30:58 44° SW 03:37:34 10° SSE
Meteor 1-27 Rocket 4.4 03:26:10 10° NNW 03:31:48 55° ENE 03:37:30 10° SE
COSMO-SKYMED 1 3.5 03:28:06 10° S 03:30:47 36° S 03:30:47 36° S
CZ-4C R/B 4.2 03:28:36 10° S 03:32:57 26° ESE 03:38:00 10° ENE
Meteor 1-10 Rocket 4.3 03:29:20 16° NNW 03:33:55 75° ENE 03:39:30 10° SSE
Cosmos 1633 4.4 03:36:11 23° NNE 03:36:11 23° NNE 03:37:37 10° NNE
USA 308 4.1 03:35:04 31° S 03:35:04 31° S 03:38:53 10° ESE
Meteor 2-3 Rocket 3.9 03:30:00 10° S 03:35:44 74° ESE 03:41:33 10° NNE
CZ-4B R/B 4.2 03:33:43 10° NNE 03:38:06 46° E 03:42:24 10° S
ARIANE 5 R/B 3.9 03:33:44 10° N 03:36:32 25° NNW 03:36:32 25° NNW
COSMOS 2406 3.4 03:35:59 37° NNW 03:38:19 71° NE 03:44:05 10° SE
Timation 1 Rocket 4.2 03:38:32 46° WSW 03:40:27 79° NW 03:46:32 10° NE
MOS 1 Rocket 3.6 03:35:54 10° SSE 03:40:52 75° ENE 03:46:04 10° NNW
Cosmos 1048 Rocket 4.3 03:40:04 31° NNW 03:42:34 65° NE 03:47:48 10° SE
Cosmos 1503 Rocket 4.3 03:46:34 45° NW 03:46:38 45° NW 03:51:44 10° NNE
NOSS 2-2 (D) 3.3 03:46:57 74° WNW 03:47:14 79° NNW 03:52:13 10° ENE
ALOS 2.1 03:45:12 10° NNE 03:49:55 79° WNW 03:53:16 19° SSW
PSLV R/B 4.5 03:46:18 10° N 03:49:11 35° NNW 03:49:11 35° NNW
deb Chang Zheng 4 3.7 03:46:50 10° NNE 03:51:12 74° ESE 03:55:33 10° SSW
Cosmos 909 Rocket 4.2 03:49:33 36° NW 03:52:12 65° NNE 03:58:31 10° E
SL-24 R/B 4.4 03:46:56 10° S 03:52:27 64° WSW 03:54:27 35° NW
NOSS 2-3 (C) 4.3 03:51:00 45° WNW 03:52:51 77° N 03:59:52 10° E
METEOR-M 4.1 03:49:08 10° NNE 03:54:31 90° NW 03:59:53 10° SSW
Cosmos 2074 Rocket 4.3 03:49:58 10° S 03:56:08 69° E 04:02:20 10° NNE
Cosmos 2082 3.9 03:54:59 44° WNW 03:56:16 52° NW 04:01:55 10° NE
Cosmos 2344 4.5 03:53:01 32° WNW 03:57:04 48° SW 04:08:19 10° SSE
USA 229 DEB 3.8 03:54:54 36° WNW 03:58:04 80° NNE 04:05:31 10° ESE
USA 229 3.8 03:54:59 36° WNW 03:58:09 80° NNE 04:05:37 10° E
Cosmos 2227 Rocket 2.7 03:57:13 38° NW 03:58:15 41° NNW 04:03:39 10° NE
Cosmos 2151 4.1 04:02:12 28° NNW 04:02:12 28° NNW 04:04:34 10° N
EO 1 Delta rocket 3.7 03:55:47 10° S 04:00:33 81° WSW 04:05:14 10° NNW
ARGOS Delta rocket 4.0 03:55:42 10° N 04:00:55 60° WNW 04:04:43 17° SW
Cosmos 968 Rocket 4.3 04:01:50 31° NW 04:02:01 31° NNW 04:06:39 10° NNE
Meteor 1-31 Rocket 2.6 03:58:49 10° NNE 04:02:43 80° WNW 04:05:09 22° SSW
TRAILBLAZER 4.5 04:02:25 49° WSW 04:03:38 84° NNW 04:08:16 10° ENE
USA 305 4.1 04:02:46 28° SSW 04:03:40 30° S 04:07:26 10° SE
Cosmos 2227 4.1 04:01:37 23° SW 04:05:12 84° NW 04:10:53 10° NE
NOSS 3-4 (A) 4.0 04:00:50 12° SW 04:06:26 58° SE 04:12:55 10° ENE
NOSS 3-4 (C) 4.0 04:00:54 11° SW 04:06:34 58° SE 04:13:02 10° ENE
Cosmos 1812 2.6 04:07:43 59° WNW 04:08:10 66° W 04:11:59 10° S
Cosmos 2228 Rocket 2.9 04:05:58 29° NNW 04:08:11 71° W 04:12:34 10° S
Cosmos 1515 Rocket 4.1 04:09:36 40° WSW 04:09:36 40° WSW 04:13:13 10° SSW
NOSS 3-1 (C) 3.8 04:07:27 32° WNW 04:10:57 87° NNE 04:19:00 10° ESE
Cosmos 405 Rocket 3.8 04:07:42 10° S 04:11:15 44° E 04:14:53 10° NNE
Cosmos 2219 4.0 04:10:17 31° NW 04:11:50 37° NNW 04:17:11 10° NE
NOSS 3-1 (A) 3.8 04:08:34 32° WNW 04:12:00 80° NNE 04:19:56 10° ESE
USA 306 4.2 04:10:52 26° SW 04:12:01 30° S 04:15:47 10° SE
Cosmos 2184 Rocket 4.1 04:07:13 10° S 04:13:35 82° E 04:20:01 10° NNE
SL-4 R/B 3.8 04:15:03 17° SSW 04:16:15 20° S 04:19:00 10° SE
DMSP B5D1-3 4.5 04:12:17 10° S 04:17:26 67° WSW 04:21:55 14° NNW
Meteor 2-17 Rocket 4.3 04:11:51 10° SSW 04:17:54 77° WNW 04:24:02 10° NNE
Cosmos 1777 Rocket 4.1 04:16:44 32° WSW 04:18:56 54° NW 04:24:05 10° NNE
SJ-12 3.7 04:14:58 10° NNE 04:19:04 78° WNW 04:23:07 10° SSW
Cosmos 1184 Rocket 4.2 04:21:36 25° N 04:21:36 25° N 04:23:15 10° N
Cosmos 1844 Rocket 3.7 04:17:00 10° S 04:22:25 49° ESE 04:27:54 10° NE
Cosmos 1707 Rocket 3.6 04:21:31 12° NNW 04:25:34 81° ENE 04:29:55 10° SSE
ATLAS 2AS CENTAUR R/B 3.4 04:18:37 10° SW 04:26:29 66° SE 04:34:05 10° ENE
ADEOS 3.6 04:24:25 10° NNE 04:29:33 56° WNW 04:34:39 10° SW
CZ-4B R/B 3.8 04:27:01 10° N 04:30:34 47° WNW 04:31:59 30° WSW
ATLAS CENTAUR R/B 3.4 04:32:06 12° SW 04:32:06 12° SW 04:32:52 10° SSW
Meteor PRIRODA 3.5 04:28:17 10° NNE 04:32:03 77° WNW 04:35:48 10° SSW
Cosmos 2297 Rocket 3.0 04:30:30 26° NW 04:32:41 34° NNW 04:37:51 10° NE
ATLAS 5 CENTAUR R/B 1.5 04:31:19 27° WSW 04:32:57 62° SSE 04:35:03 10° E
Meteor 2-6 Rocket 4.4 04:29:49 17° NNW 04:33:39 43° W 04:38:44 10° SSW
NOSS 2-2 (C) 3.7 04:31:55 34° WNW 04:33:39 69° N 04:38:57 10° E
CZ-2C R/B 3.2 04:30:37 10° N 04:34:19 27° NW 04:34:19 27° NW
H-2A R/B 2.8 04:31:59 10° NNE 04:35:57 83° ESE 04:39:51 10° SSW
RESURS DK-1 3.2 04:32:15 10° SSW 04:36:19 53° SE 04:40:24 10° NE
Lacrosse 5 3.2 04:32:57 10° SW 04:37:34 36° SSE 04:42:12 10° E
Cosmos 1437 Rocket 2.8 04:36:35 31° NW 04:38:00 49° W 04:41:40 10° S
USA 290 2.9 04:37:25 25° NNW 04:39:04 53° NE 04:42:19 10° SE
Okean O Rocket 3.2 04:35:17 10° NNE 04:39:28 38° E 04:43:38 10° SSE
ERBS 3.4 04:38:12 23° SW 04:39:45 37° S 04:42:52 10° ESE
Resurs 1-4 Rocket 4.2 04:39:11 10° N 04:39:56 10° NNW 04:40:37 10° NNW
Cosmos 1500 Rocket 3.4 04:36:16 10° SSW 04:40:35 80° WNW 04:44:59 10° NNE
SMAP 4.3 04:37:41 10° NNE 04:42:12 45° E 04:46:41 10° S
Cosmos 1242 Rocket 2.9 04:41:14 13° NNW 04:44:26 64° ENE 04:48:04 10° SSE
IDEFIX/ARIANE 42P 4.1 04:41:19 10° N 04:44:27 17° NW 04:44:27 17° NW
Geosat 4.0 04:40:38 10° SSE 04:45:38 63° SW 04:49:04 20° NW
Nadezhda 3 Rocket 4.1 04:39:43 10° NNW 04:45:52 54° W 04:51:55 10° SSW
Cosmos 2263 Rocket 2.3 04:43:11 14° WSW 04:47:59 59° NW 04:53:40 10° NE
NOSS 2-3 (E) 4.5 04:45:50 23° WNW 04:49:32 87° SSW 04:56:54 10° ESE
SJ 16-02 1.5 04:45:53 11° SW 04:50:01 52° NW 04:54:24 10° NNE
FENGYUN 3A 4.1 04:49:15 10° NNE 04:54:15 39° NW 04:59:14 10° WSW
Envisat 3.1 04:49:49 10° NNE 04:54:57 80° ESE 05:00:03 10° SSW
SJ-7 4.3 04:52:30 10° NNE 04:56:35 83° WNW 05:00:40 10° SSW
Cosmos 2251 Rocket 4.4 04:52:36 13° NNW 04:57:05 42° NE 05:02:03 10° ESE
Cosmos 1898 Rocket 3.5 04:52:16 10° SW 04:57:38 85° NW 05:03:02 10° NE
CZ-2C R/B 2.6 04:52:59 10° S 04:58:25 69° WSW 05:03:45 10° NNW
H-2A R/B 2.5 04:54:39 10° NNE 04:58:36 73° ESE 05:02:25 10° SSW
ADEOS II 4.0 04:58:38 10° N 05:00:12 11° NNW 05:00:53 11° NNW
Cosmos 1484 Rocket 3.9 04:57:28 10° N 05:00:09 22° NW 05:00:09 22° NW
Cosmos 1766 Rocket 4.5 04:58:04 15° WSW 05:01:03 28° WNW 05:04:56 10° N
Sich 1 3.3 04:57:02 10° S 05:01:28 76° ESE 05:05:56 10° NNE
Cosmos 2082 Rocket 2.2 04:57:54 17° NW 05:02:28 80° SW 05:08:11 10° SSE
CZ-4B R/B 3.9 04:57:36 10° NNE 05:02:52 57° ESE 05:08:11 10° S
Cosmos 1743 Rocket 3.7 05:00:17 10° SSW 05:04:40 54° WNW 05:09:06 10° N
Cosmos 1408 Rocket 4.1 05:02:45 10° SW 05:06:52 35° WNW 05:10:59 10° N
Cosmos 1633 4.2 05:10:20 17° NW 05:10:20 17° NW 05:11:54 10° N
COSMO-SKYMED 1 4.5 05:06:56 10° WSW 05:07:59 13° WSW 05:07:59 13° WSW
CZ-4 R/B 4.1 05:07:41 10° NE 05:11:05 23° E 05:14:29 10° SE
Cosmos 1862 Rocket 3.5 05:07:11 10° NNW 05:11:41 76° WSW 05:16:07 10° S
Cosmos 1833 Rocket 3.0 05:08:14 16° NW 05:12:32 50° WSW 05:17:56 10° SSE
NOSS 2-2 (E) 3.9 05:09:40 19° WNW 05:12:46 71° N 05:18:32 10° E
CZ-4B R/B 3.5 05:08:55 10° N 05:13:10 41° WNW 05:17:22 10° SW
Cosmos 1269 Rocket 4.0 05:09:23 13° NW 05:14:16 83° WSW 05:19:34 10° SSE
Cosmos 1939 Rocket 4.4 05:10:30 10° NNE 05:14:21 40° E 05:18:13 10° SSE
deb Kosmos-1763 3.9 05:11:47 16° NW 05:14:34 86° SW 05:18:10 10° SSE
Cosmos 1937 Rocket 3.4 05:09:29 10° SW 05:14:41 83° NW 05:19:58 10° NE
Meteor 1-27 Rocket 4.1 05:09:44 10° NNW 05:15:06 43° W 05:20:32 10° SSW
ARIANE 5 R/B 4.3 05:13:44 10° N 05:16:00 13° NNW 05:16:53 12° NW
Meteor 2-3 Rocket 4.4 05:14:15 10° WSW 05:19:30 34° NW 05:24:49 10° NNE
MOS 1 Rocket 4.4 05:15:23 10° SSW 05:19:40 28° W 05:24:10 10° NNW
Cosmos 494 Rocket 4.2 05:15:42 14° NW 05:20:03 50° WSW 05:25:01 10° S
ATLAS 3B R/B 4.3 05:17:52 13° W 05:20:07 15° WSW 05:23:47 10° SW
CZ-4C R/B 2.7 05:15:04 10° SW 05:20:30 70° SE 05:27:11 10° ENE
Cosmos 2154 Rocket 4.0 05:14:37 10° SSW 05:20:48 63° WNW 05:27:06 10° NNE
COSMOS 2406 3.8 05:18:03 15° NW 05:22:25 40° WSW 05:27:43 10° S
Cosmos 1805 Rocket 3.6 05:19:23 10° SSW 05:23:48 63° WNW 05:28:16 10° N
YAOGAN 6 2.6 05:20:45 10° N 05:24:13 54° WNW 05:27:38 10° SW
ALOS 3.4 05:23:11 10° N 05:26:46 22° NW 05:30:21 10° W
deb Chang Zheng 4 4.5 05:23:09 10° N 05:26:48 27° NW 05:30:27 10° WSW
Aureole 2 Rocket 1.5 05:25:34 10° SW 05:28:08 86° WNW 05:30:45 10° NNE
Cosmos 1666 Rocket 3.5 05:26:28 10° SSW 05:30:49 90° ESE 05:35:12 10° NNE
Meteor 2-4 Rocket 4.0 05:25:23 10° NNW 05:31:22 78° ENE 05:37:10 10° SSE
Cosmos 1862 3.9 05:27:42 10° SW 05:31:30 36° WNW 05:35:18 10° N
PSLV R/B 4.1 05:29:09 10° N 05:32:55 44° WNW 05:36:36 10° SW
Genesis I 3.6 05:29:07 10° SW 05:32:56 66° SE 05:36:49 10° ENE
H-2A R/B 4.2 05:28:57 10° NNE 05:33:10 26° E 05:37:17 10° SSE
Cosmos 2242 Rocket 3.6 05:29:28 10° NNW 05:33:58 89° ENE 05:38:24 10° SSE
DMSP B5D2-2 4.3 05:29:20 10° S 05:34:24 49° W 05:39:29 10° NNW
Meteor 1-31 Rocket 4.2 05:33:55 10° N 05:36:36 18° NW 05:39:16 10° W
Cosmos 2341 Rocket 4.0 05:30:28 10° SSW 05:36:41 77° WNW 05:42:59 10° NNE
Cosmos 2278 Rocket 3.7 05:32:37 10° S 05:37:53 42° ESE 05:43:13 10° NE
NOSS 2-2 (D) 3.9 05:34:21 13° WNW 05:38:07 73° N 05:43:51 10° E
Cosmos 990 Rocket 4.2 05:35:26 10° WSW 05:40:34 50° NW 05:45:43 10° NNE
Okean 1 3.4 05:36:50 10° NNW 05:40:50 57° W 05:44:48 10° S
NOAA 12 4.1 05:36:27 10° NNE 05:41:47 83° WNW 05:47:04 10° SSW
Cosmos 2074 Rocket 4.4 05:36:18 10° SW 05:42:02 38° WNW 05:47:50 10° N
H-2A R/B 4.3 05:39:07 10° SE 05:43:03 49° ENE 05:47:02 10° N
Cosmos 2227 Rocket 3.2 05:39:03 12° WNW 05:43:38 31° N 05:48:41 10° ENE
Cosmos 1727 Rocket 4.0 05:37:41 10° NNW 05:43:58 70° W 05:50:15 10° S
SL-8 Rocket 4.0 05:38:06 10° SSW 05:44:16 83° WNW 05:50:31 10° NNE
Meteor 1-19 Rocket 4.2 05:41:19 10° NNW 05:46:48 62° W 05:52:09 10° S
Cosmos 405 Rocket 3.4 05:44:02 10° WSW 05:47:24 31° WNW 05:50:50 10° N
Meteor 1-18 Rocket 4.4 05:42:54 10° NNW 05:48:37 61° W 05:54:11 10° S
USA 229 DEB 4.1 05:42:20 11° WNW 05:49:05 64° SW 05:56:31 10° SE
USA 229 4.1 05:42:25 11° WNW 05:49:11 65° SW 05:56:37 10° SE
Meteor 1-20 Rocket 4.4 05:45:21 10° SSW 05:51:05 86° ESE 05:56:58 10° NNE
Cosmos 909 Rocket 4.2 05:46:27 10° WNW 05:52:37 66° SW 05:59:02 10° SE
SME Rocket 3.3 05:48:47 10° SSE 05:52:46 83° WSW 05:58:08 10° NNW
CZ-2D R/B 3.9 05:49:42 10° NNE 05:53:35 63° ESE 05:57:27 10° S
Cosmos 1271 Rocket 2.6 05:50:01 10° NNW 05:53:49 81° WSW 05:57:38 10° SSE
SL-4 R/B 4.3 05:53:02 10° SW 05:54:49 13° SSW 05:56:33 10° S
NOSS 3-4 (A) 3.6 05:51:01 10° WSW 05:57:15 80° NNW 06:04:11 10° ENE
Cosmos 1633 Rocket 3.0 05:52:55 10° SSW 05:57:20 68° WNW 06:01:46 10° NNE
NOSS 3-4 (C) 3.6 05:51:08 10° WSW 05:57:22 81° NNW 06:04:18 10° ENE
Cosmos 2219 4.2 05:52:15 10° NW 05:57:25 32° N 06:02:36 10° ENE
NOSS 3-1 (C) 4.4 05:55:00 10° WNW 06:01:47 54° SW 06:09:46 10° SSE
Cosmos 1515 4.2 05:59:04 10° NNW 06:02:41 40° W 06:06:16 10° SSW
Cosmos 1356 3.7 05:59:32 10° SW 06:02:50 45° WNW 06:06:11 10° N
NOSS 3-1 (A) 4.2 05:56:13 10° WNW 06:03:04 65° SW 06:11:12 10° SE
MOS 1-B 4.5 05:58:04 10° NNE 06:03:45 56° WNW 06:09:24 10° SW
Cosmos 1844 Rocket 2.8 06:00:42 10° WSW 06:06:20 61° NW 06:12:00 10° NE
NOAA 6 4.3 06:02:08 10° NNE 06:07:00 44° WNW 06:11:50 10° SW
H-2A R/B 4.0 06:06:42 10° N 06:09:42 21° NW 06:12:43 10° WSW
CZ-2C R/B 4.2 06:10:58 10° NNW 06:11:23 10° NNW 06:11:48 10° NNW
Okean-O 3.3 06:08:30 10° NNE 06:12:56 60° ESE 06:17:20 10° S
USA 290 3.7 06:10:33 10° NW 06:13:17 24° WSW 06:15:59 10° SSW
SL-27 R/B 3.5 06:10:15 10° NNW 06:13:27 37° NE 06:16:35 10° ESE
Cosmos 1666 4.4 06:10:10 10° SSE 06:13:37 35° E 06:17:06 10° NNE
COSMOS 2455 3.1 06:08:25 10° SW 06:14:28 82° SE 06:20:33 10° NE
RESURS DK-1 2.7 06:10:27 10° WSW 06:14:28 46° NNW 06:18:31 10° NE
Okean 1-7 3.2 06:10:58 10° NNW 06:15:15 56° W 06:19:27 10° S
CZ-2C R/B 4.2 06:10:54 10° S 06:15:33 49° W 06:20:13 10° NNW
Okean O Rocket 1.9 06:11:41 10° N 06:15:57 47° WNW 06:20:14 10° SW
ATLAS 2AS CENTAUR R/B 3.1 06:09:36 10° WSW 06:17:35 80° NNW 06:25:10 10° ENE
